Temp
60 60 60 60 60 60 59 59 59 60 61 61 61 61 61 61 61 76 74 80 81 71 73 86 86 86 88 87 90 91 77 74 78 79 82 89 87 90 92 89 93 95 93 97 99
60 60 60 60 60 60 59 59 59 59 60 61 60 60 60 60 67 71 79 74 73 73 85 84 83 85 83 84 86 81 77 77 87 88 86 90 87 90 85 86 88 93 97 99 98
59 59 59 59 60 59 59 59 59 60 60 59 59 60 60 63 68 79 72 73 72 75 86 90 89 86 81 86 84 83 76 86 86 90 90 87 86 93 86 82 88 90 93 96 96
59 59 59 59 59 59 58 59 59 60 60 59 59 59 60 67 64 78 71 71 73 81 81 84 84 81 78 78 85 77 84 85 87 90 88 84 89 86 87 87 93 94 95 95 94
58 58 58 58 58 59 58 58 58 59 59 59 59 59 63 61 69 83 73 76 84 80 80 82 79 80 76 81 83 80 82 85 87 86 87 87 84 83 86 90 94 95 93 93 94
57 58 58 58 58 58 58 58 58 58 58 59 59 58 61 52 78 80 78 78 79 82 80 83 82 85 82 81 80 84 84 84 85 85 85 82 83 86 87 89 91 92 92 94 94
57 57 57 57 58 58 58 57 57 57 58 59 60 60 56 59 76 78 78 75 77 79 79 83 87 81 82 77 85 83 76 81 81 83 82 85 77 79 88 90 89 90 91 92 93
57 57 57 57 57 58 58 57 57 57 58 59 60 59 52 73 78 74 76 74 77 77 77 84 86 81 79 82 78 75 76 69 80 82 82 81 69 84 91 90 88 88 89 90 92
57 57 56 57 57 57 57 56 57 58 59 60 60 57 57 68 65 73 75 69 77 77 76 81 81 75 76 69 68 72 65 68 73 84 81 78 73 85 90 88 84 86 88 89 90
57 56 56 56 57 56 56 56 59 58 63 67 66 54 63 63 69 72 77 72 68 73 69 70 73 69 70 68 59 64 66 69 70 79 77 75 75 83 87 86 84 86 87 87 88
57 56 56 56 56 55 58 67 63 60 61 59 61 59 65 72 75 70 73 68 67 66 61 68 63 61 67 70 72 72 70 69 73 80 76 74 76 81 85 84 84 85 85 86 88
56 56 56 56 56 55 62 58 55 56 47 61 62 62 66 69 58 65 74 62 60 57 65 65 59 70 74 73 70 69 67 68 75 79 76 73 73 80 83 83 84 84 85 86 88
55 55 55 55 55 57 60 57 64 61 46 56 62 61 63 65 57 59 68 66 61 58 62 61 65 73 71 69 67 66 65 66 67 74 76 72 68 72 80 84 86 86 87 88 89
55 55 55 54 55 63 58 63 66 63 40 52 55 60 63 62 54 67 69 66 62 57 62 63 72 70 69 67 70 62 71 69 67 65 59 72 58 69 76 78 81 84 86 88 90
54 55 55 54 57 57 61 65 65 60 31 54 56 71 66 59 61 63 72 65 57 60 62 59 64 66 66 68 73 67 74 70 68 64 63 65 60 67 75 72 77 83 85 89 90
55 55 54 59 57 60 66 63 59 35 30 49 58 55 56 57 58 63 64 66 66 60 64 63 74 71 71 74 74 74 70 69 68 65 53 61 60 62 69 73 78 84 86 89 85
54 54 56 58 53 58 60 56 36 32 52 46 48 54 55 51 53 52 53 55 52 47 49 59 62 70 73 68 72 70 63 54 50 51 50 65 61 62 73 79 80 83 85 86 83
53 51 53 63 62 56 55 41 31 43 44 52 51 52 49 51 50 50 48 45 59 58 55 50 48 62 71 68 65 65 64 58 46 49 56 65 56 66 76 81 83 85 87 86 83
51 64 63 62 62 58 48 34 39 42 46 45 48 45 48 50 49 49 44 37 46 58 50 50 53 69 70 73 73 65 60 72 63 64 59 65 67 72 75 78 82 83 85 82 81
58 60 59 62 59 55 41 36 42 49 49 49 40 46 41 46 45 47 42 38 41 52 53 54 47 66 68 73 74 70 73 59 63 49 48 59 61 61 72 77 80 81 83 84 80
58 55 59 63 54 42 34 39 45 52 51 45 43 42 44 45 47 46 42 43 39 47 52 54 52 58 66 63 64 67 64 66 66 63 53 53 60 72 73 79 80 83 85 81 79
56 46 62 63 43 38 37 44 45 48 52 48 48 46 44 47 45 43 40 42 47 46 43 54 51 48 59 70 74 71 67 66 58 54 63 64 62 75 79 80 83 86 83 81 81
52 50 63 58 37 39 45 45 47 47 47 46 44 48 49 45 39 44 44 48 49 45 41 44 50 47 53 64 69 66 68 68 68 67 58 57 59 79 79 80 81 81 80 80 80
51 41 52 55 47 38 39 44 44 52 48 50 46 49 46 45 50 44 47 45 47 45 46 47 47 50 51 57 65 61 65 68 65 60 62 62 66 74 78 79 80 80 79 80 80
52 45 46 39 40 38 43 44 43 42 49 51 44 44 41 38 44 44 45 46 45 46 46 48 45 52 55 56 56 61 64 66 63 65 61 66 65 75 80 79 81 81 80 79 81
44 41 49 43 44 42 43 44 41 42 41 42 44 46 45 40 42 42 46 46 38 41 42 48 42 51 50 57 57 56 62 66 66 67 66 68 66 79 82 84 81 79 80 80 81
48 52 41 43 41 38 41 42 41 42 47 48 45 42 43 45 50 52 53 52 50 47 46 41 43 47 46 57 55 52 60 64 66 69 68 63 71 79 77 79 81 82 81 82 83
MSLP
1021.81 1021.42 1020.99 1020.62 1020.38 1019.96 1019.66 1019.39 1019.22 1019.17 1018.64 1018.27 1017.85 1017.27 1017.09 1016.59 1015.91 1014.57 1013.12 1011.92 1012.00 1012.06 1012.09 1011.72 1011.47 1011.24 1010.86 1009.77 1008.97 1008.28 1007.28 1005.47 1004.50 1004.18 1003.94 1004.48 1004.26 1004.81 1004.92 1004.70 1004.48 1004.23 1004.27 1004.29 1004.74
1021.83 1021.45 1021.05 1020.67 1020.10 1019.67 1019.65 1019.58 1019.22 1019.14 1018.57 1018.02 1017.87 1017.50 1017.27 1016.61 1015.20 1012.89 1011.38 1011.51 1011.94 1011.89 1011.43 1010.67 1010.05 1010.18 1009.78 1008.90 1008.38 1007.67 1005.87 1004.89 1004.49 1004.05 1004.00 1003.77 1004.35 1004.12 1004.78 1004.50 1004.12 1003.47 1003.66 1003.88 1004.57
1021.84 1021.49 1021.22 1020.97 1020.65 1020.39 1019.82 1019.42 1019.30 1018.86 1018.50 1018.48 1018.29 1018.01 1017.69 1016.83 1014.42 1010.52 1011.31 1011.38 1011.54 1011.50 1010.68 1009.78 1009.13 1009.24 1008.71 1008.07 1007.29 1006.59 1004.75 1004.38 1004.45 1004.20 1004.28 1004.13 1004.25 1003.83 1003.96 1003.96 1003.78 1003.30 1003.40 1003.74 1003.99
1021.99 1021.60 1021.18 1020.84 1020.48 1020.21 1020.01 1019.58 1019.07 1018.52 1018.46 1018.26 1018.10 1017.76 1017.24 1016.03 1012.49 1010.43 1011.49 1011.24 1010.73 1009.96 1010.19 1009.22 1008.73 1008.29 1007.88 1006.87 1006.84 1005.79 1004.74 1004.76 1004.37 1003.93 1004.16 1004.30 1004.15 1003.72 1003.58 1003.61 1003.62 1003.41 1003.48 1003.29 1003.07
1022.10 1021.69 1021.21 1020.73 1020.24 1019.76 1019.43 1019.19 1018.91 1018.58 1018.25 1018.02 1018.08 1017.95 1016.97 1014.81 1011.09 1010.21 1010.96 1010.79 1010.01 1009.63 1008.97 1008.22 1007.89 1007.35 1006.31 1006.28 1005.96 1004.81 1004.81 1004.67 1004.53 1004.70 1004.45 1004.37 1003.92 1003.41 1003.12 1003.43 1003.39 1003.17 1003.07 1002.68 1002.56
1022.03 1021.59 1021.16 1020.70 1020.24 1019.74 1019.31 1018.91 1018.58 1018.37 1018.19 1018.01 1017.82 1017.67 1016.57 1013.43 1010.85 1010.78 1010.87 1010.67 1010.19 1009.38 1008.64 1008.03 1007.25 1006.70 1005.70 1005.30 1004.90 1004.59 1004.40 1004.32 1004.41 1004.07 1004.30 1004.01 1003.26 1003.16 1002.76 1002.98 1002.64 1002.53 1002.29 1001.98 1001.77
1021.81 1021.41 1020.99 1020.50 1019.98 1019.45 1018.98 1018.62 1018.22 1017.77 1017.41 1017.23 1017.15 1017.04 1015.45 1012.13 1011.14 1011.05 1010.88 1010.64 1010.56 1009.72 1008.55 1008.00 1007.34 1006.92 1006.04 1005.44 1004.80 1004.41 1004.25 1003.70 1003.76 1003.80 1003.60 1003.73 1002.27 1002.03 1002.33 1002.24 1001.85 1001.82 1001.71 1001.43 1001.26
1021.62 1021.20 1020.75 1020.26 1019.72 1019.15 1018.57 1018.02 1017.40 1016.86 1016.45 1016.28 1016.34 1016.19 1013.52 1011.43 1011.10 1010.92 1010.47 1010.04 1010.12 1010.02 1009.44 1008.24 1007.90 1007.36 1006.43 1005.79 1004.92 1004.23 1004.09 1002.70 1002.71 1003.02 1003.16 1003.58 1000.75 1001.02 1001.33 1001.14 1001.06 1001.40 1001.18 1000.83 1000.59
1021.38 1020.92 1020.53 1020.03 1019.47 1018.85 1018.20 1017.43 1016.67 1016.03 1015.58 1015.51 1015.55 1015.09 1011.31 1011.10 1010.93 1010.03 1009.99 1009.60 1008.83 1008.98 1009.20 1008.78 1008.09 1006.92 1006.56 1005.94 1004.66 1003.19 1001.60 1001.19 1001.86 1001.96 1002.30 1002.52 1000.15 1000.49 1000.42 1000.67 1000.91 1000.85 1000.46 1000.16 999.87
1021.10 1020.70 1020.24 1019.65 1019.04 1018.39 1017.46 1016.39 1015.54 1015.60 1014.88 1014.57 1014.14 1014.24 1010.81 1009.54 1009.30 1009.18 1008.95 1009.36 1008.91 1008.07 1008.52 1008.06 1007.12 1006.13 1005.42 1004.16 1000.38 1001.24 1001.42 1001.39 1000.67 1001.06 1002.20 1001.61 1000.02 1000.16 1000.18 1000.38 1000.12 999.94 999.83 999.60 999.26
1020.71 1020.24 1019.80 1019.29 1018.75 1018.19 1017.07 1015.00 1014.48 1013.83 1013.67 1012.57 1011.44 1010.76 1009.16 1008.79 1008.76 1008.72 1008.67 1008.71 1008.38 1007.72 1005.92 1006.12 1005.78 1003.06 1000.51 1001.74 1002.06 1001.78 1001.08 1000.26 1000.79 1000.98 1001.11 1000.42 999.44 999.31 999.40 999.87 999.49 999.18 999.08 998.79 998.47
1020.60 1019.98 1019.38 1018.87 1018.36 1017.81 1016.80 1015.55 1016.04 1016.39 1013.99 1011.87 1010.56 1009.91 1009.28 1009.28 1008.85 1008.36 1008.31 1007.91 1007.19 1005.58 1005.68 1004.69 1002.30 998.11 1001.99 1001.89 1001.95 1001.87 1001.04 1000.07 1000.42 1000.61 1000.36 1000.52 999.43 999.08 998.88 998.70 998.90 998.40 998.15 998.11 997.82
1020.43 1019.91 1019.36 1018.79 1018.09 1017.48 1016.51 1016.18 1016.21 1016.18 1014.26 1010.39 1008.91 1008.59 1008.28 1008.39 1007.92 1007.35 1007.28 1006.58 1005.79 1004.99 1003.40 1001.23 997.60 1001.59 1000.83 1000.96 1000.95 1000.51 1000.51 1000.93 1000.54 1000.61 1000.40 1000.38 999.43 998.74 998.61 998.12 997.64 997.57 997.50 997.40 997.13
1020.21 1019.65 1019.09 1018.53 1017.86 1016.63 1015.89 1016.18 1016.09 1015.96 1013.55 1008.54 1007.97 1007.44 1007.53 1007.66 1006.97 1006.45 1006.12 1005.94 1005.03 1003.89 1003.12 1001.59 999.69 999.81 999.95 999.39 999.59 999.06 1000.81 1001.38 1001.20 1001.22 999.71 1000.59 998.02 997.54 997.43 996.76 996.79 996.55 996.52 996.26 996.41
1020.03 1019.39 1018.91 1018.66 1017.62 1016.50 1016.12 1016.16 1015.90 1015.45 1011.52 1007.72 1007.17 1006.65 1006.52 1006.61 1005.94 1004.74 1005.14 1005.35 1004.03 1003.22 1002.62 999.56 999.44 998.68 997.93 996.13 998.94 997.79 1000.13 1000.58 1000.98 1000.82 1000.48 999.68 998.84 996.34 997.07 996.24 995.69 995.53 995.62 995.58 995.93
1019.62 1018.91 1018.45 1017.21 1017.51 1016.96 1016.25 1016.21 1015.69 1014.51 1009.54 1007.27 1006.51 1006.33 1005.99 1006.16 1005.88 1005.59 1004.79 1005.17 1004.52 1003.72 1001.74 1000.40 999.01 998.49 996.20 997.82 998.10 999.57 999.98 1000.23 1000.46 1000.40 999.02 998.96 998.72 996.76 995.91 995.14 994.62 994.47 994.56 994.66 996.28
1019.09 1018.44 1017.81 1017.59 1017.01 1017.38 1016.91 1015.62 1014.71 1011.83 1008.75 1007.73 1007.34 1006.91 1006.16 1005.88 1006.16 1006.35 1005.45 1004.28 1003.82 1003.12 1001.42 1000.10 998.93 998.18 997.36 997.08 997.82 998.68 999.19 998.88 999.19 998.70 997.23 998.18 997.29 995.66 995.19 994.13 994.04 993.90 994.18 994.89 996.39
1018.75 1018.30 1017.82 1017.04 1017.22 1017.43 1016.68 1015.68 1013.10 1010.21 1009.34 1008.97 1008.47 1007.60 1006.41 1006.19 1006.38 1006.51 1006.22 1005.38 1002.86 1002.29 1000.95 1000.06 998.46 997.36 996.36 995.67 995.44 996.29 996.55 995.63 995.99 996.32 996.18 996.64 995.08 993.88 994.11 993.70 993.59 993.66 993.89 994.84 996.26
1018.31 1017.03 1016.39 1016.66 1016.86 1016.96 1016.11 1014.23 1011.75 1011.19 1010.90 1010.13 1009.08 1007.44 1006.17 1006.22 1006.69 1006.42 1006.83 1007.35 1005.84 1003.06 1001.59 999.29 997.23 995.98 995.89 995.69 995.05 995.39 995.07 995.34 995.15 995.35 995.05 994.20 994.26 993.94 993.92 992.63 992.47 992.63 993.45 994.71 996.07
1017.80 1016.84 1016.29 1016.84 1017.07 1016.71 1015.95 1014.03 1012.65 1012.05 1011.40 1010.42 1009.22 1008.12 1007.04 1006.24 1006.65 1006.31 1007.16 1008.57 1007.64 1005.49 1004.68 1000.98 998.26 995.39 995.59 995.32 994.68 994.08 995.27 995.29 994.87 994.40 994.20 993.87 993.35 992.92 991.83 991.39 991.66 992.10 992.84 994.06 995.85
1017.53 1016.08 1016.72 1016.91 1017.45 1017.23 1015.89 1014.01 1012.85 1012.12 1011.67 1010.74 1009.55 1008.72 1007.84 1007.15 1006.99 1006.57 1007.23 1008.41 1008.83 1007.05 1005.35 1002.84 999.91 995.92 995.11 993.65 992.41 993.10 993.41 993.96 994.26 994.11 993.61 993.19 992.65 992.28 992.05 991.24 991.21 991.60 992.55 994.12 995.67
1017.43 1015.96 1016.52 1016.62 1016.52 1016.70 1015.59 1014.33 1013.77 1012.20 1011.61 1010.98 1010.19 1009.28 1008.48 1007.54 1006.94 1006.73 1007.21 1008.05 1008.60 1008.02 1005.85 1003.32 1000.97 997.22 994.11 993.59 993.06 993.05 992.83 993.63 993.28 993.97 993.66 992.68 992.24 992.14 991.61 991.42 991.11 991.23 992.61 994.19 995.42
1017.25 1017.01 1016.53 1016.37 1015.81 1015.64 1014.96 1014.07 1013.14 1012.21 1011.49 1011.02 1010.28 1009.54 1009.03 1008.13 1007.49 1006.92 1007.17 1007.88 1008.04 1007.83 1006.87 1005.50 1001.58 997.69 994.69 993.96 993.45 992.53 992.66 993.24 993.34 993.06 993.17 992.89 992.31 991.80 991.63 991.47 991.78 992.21 993.24 994.36 995.29
1017.76 1016.75 1016.03 1016.21 1016.76 1016.63 1015.40 1013.52 1012.69 1012.01 1011.58 1011.12 1010.64 1009.80 1009.04 1007.97 1007.22 1007.00 1006.90 1008.10 1008.29 1007.91 1007.32 1006.04 1002.57 998.24 995.10 993.60 993.28 992.71 992.50 992.91 993.22 992.72 992.49 992.51 991.81 991.32 991.27 991.30 992.02 992.71 993.69 994.48 995.12
1018.21 1017.38 1017.48 1016.51 1016.43 1016.44 1015.45 1014.26 1012.78 1012.09 1011.89 1011.01 1010.51 1010.12 1009.80 1008.76 1007.61 1006.60 1007.52 1007.66 1007.73 1007.56 1006.84 1005.08 1001.76 999.52 997.86 996.59 995.57 993.55 992.72 992.76 992.85 993.17 992.60 992.12 991.98 991.17 990.80 991.75 992.07 992.78 993.70 994.38 994.80
1018.71 1018.67 1017.68 1017.07 1016.58 1015.84 1014.76 1013.47 1013.19 1012.84 1012.83 1011.51 1010.65 1010.16 1009.94 1009.17 1008.42 1007.33 1006.91 1006.93 1007.52 1007.54 1006.43 1004.97 1002.46 999.96 998.40 997.39 996.19 994.61 993.30 992.82 993.03 993.14 993.07 992.63 992.01 992.21 991.52 991.78 992.27 992.87 993.30 993.76 994.40
1019.55 1019.14 1019.06 1017.12 1016.36 1015.97 1014.79 1014.29 1013.91 1013.56 1012.36 1011.59 1011.40 1010.98 1009.71 1008.96 1008.56 1007.75 1007.22 1006.93 1006.72 1006.27 1005.81 1005.00 1003.20 1000.51 997.97 997.02 996.32 994.95 993.88 993.29 993.16 993.30 993.12 992.54 992.20 992.28 992.09 991.99 992.11 992.20 993.06 993.30 993.90
Wind_Speed
15 15 14 14 15 14 16 16 16 16 15 15 16 16 18 19 21 13 14 7 3 12 7 9 13 11 12 16 13 13 11 14 19 15 11 6 10 5 3 11 12 9 12 11 11
15 16 16 17 18 17 14 13 14 15 16 16 16 16 17 19 18 16 9 7 11 9 12 15 15 15 15 16 12 15 15 22 21 13 16 14 10 11 9 13 17 17 15 11 11
16 16 15 15 15 15 17 17 15 14 13 14 15 14 15 17 11 10 11 1 14 14 21 18 14 15 19 20 21 21 25 20 23 18 19 18 20 17 17 15 21 19 17 17 17
17 17 17 17 16 15 15 15 17 17 14 13 14 15 15 9 10 10 7 10 10 12 19 22 18 21 21 26 25 30 25 23 24 25 19 19 23 21 19 19 23 21 19 21 23
15 15 17 17 17 18 17 16 15 15 16 14 13 11 11 10 17 8 11 7 10 4 19 25 24 24 28 24 26 30 24 25 21 25 23 20 23 28 24 20 24 20 19 21 21
15 15 16 16 17 18 18 18 17 16 15 15 13 9 13 19 5 8 10 12 11 10 10 20 15 22 23 29 30 24 27 28 27 25 21 23 26 25 21 22 23 21 21 20 21
15 15 16 17 18 18 18 17 17 19 19 16 13 9 14 23 11 11 17 14 8 10 13 14 23 11 16 23 23 25 26 23 22 22 25 21 26 26 20 23 22 18 18 20 20
16 15 16 17 18 19 20 20 21 23 22 17 13 10 12 8 11 17 17 17 16 16 12 11 12 21 18 15 14 21 26 25 24 22 22 18 26 22 18 20 18 17 18 19 21
18 16 17 17 18 20 20 21 25 19 11 6 9 10 12 8 10 14 14 15 13 16 14 12 14 18 15 20 18 25 26 32 25 21 18 21 31 22 16 17 14 17 20 20 21
16 16 16 18 19 19 24 23 13 9 7 7 5 7 9 10 2 4 9 10 12 13 14 19 13 15 20 21 32 23 26 27 27 20 15 24 29 20 20 19 21 18 21 19 21
20 18 17 17 18 17 16 8 6 8 8 13 9 16 19 15 9 12 4 7 10 17 24 23 21 29 41 34 26 25 29 29 22 21 21 27 28 23 18 18 23 20 21 21 21
20 20 20 18 18 15 10 8 4 6 13 18 25 26 26 23 16 19 12 11 13 23 26 21 31 48 28 28 29 29 29 30 23 22 23 23 28 25 24 22 24 22 23 20 20
19 20 20 18 18 6 10 6 3 9 9 17 12 15 13 12 16 22 19 20 19 20 29 34 42 25 32 30 30 31 30 24 27 19 22 24 29 30 26 26 22 17 18 23 20
19 18 18 17 12 6 7 1 7 7 8 6 5 5 7 6 7 17 13 23 20 25 24 31 33 30 32 36 34 32 25 24 25 21 24 21 24 27 21 21 22 23 20 20 15
19 20 17 10 11 7 7 6 7 6 8 6 7 6 2 7 10 7 8 19 28 23 16 30 29 35 32 43 30 31 22 23 24 23 25 27 22 21 19 21 25 20 19 18 8
22 21 16 7 4 9 9 7 6 6 10 1 4 2 5 2 4 11 10 12 16 27 24 28 17 25 42 20 29 21 17 18 18 17 23 23 22 22 23 27 24 22 14 15 8
24 21 7 1 4 5 8 7 7 10 7 0 6 7 13 1 9 5 10 11 13 22 27 21 29 19 21 28 26 27 22 12 14 16 17 19 20 20 23 18 25 18 9 9 9
20 14 4 4 1 5 5 4 9 4 5 15 11 17 17 4 2 8 14 13 15 24 20 22 21 32 21 30 21 29 27 14 19 16 14 21 12 15 10 22 25 21 11 9 11
19 3 2 6 1 5 5 6 8 11 8 10 15 16 15 4 6 7 3 6 11 20 19 18 28 30 22 27 28 30 27 22 11 10 8 13 14 16 17 21 15 15 16 13 10
6 3 7 8 5 2 3 5 6 9 13 14 16 11 14 11 9 9 3 3 13 14 14 6 13 24 34 25 27 28 22 22 16 18 16 12 10 8 8 11 12 13 14 13 13
4 4 6 5 3 2 4 6 10 10 11 8 11 13 15 15 16 12 2 5 5 13 12 14 9 15 28 25 27 20 25 20 17 13 14 8 8 9 17 10 12 12 13 15 16
4 3 5 4 2 1 5 9 9 11 9 9 9 10 12 12 12 5 1 3 8 8 8 4 8 13 25 24 24 27 21 26 13 20 11 5 3 2 7 2 10 7 10 15 17
6 4 2 7 4 5 6 10 4 12 11 7 11 6 11 12 7 4 2 7 10 5 5 4 10 11 15 22 21 27 23 26 17 15 19 12 3 6 6 7 4 7 13 16 18
4 4 1 2 2 8 11 7 9 8 8 13 11 12 11 11 8 7 9 8 6 6 7 7 9 17 5 20 14 25 25 26 22 11 13 14 13 8 8 8 7 8 13 16 18
3 2 4 4 4 8 13 9 13 9 7 10 4 6 11 8 16 7 8 11 5 6 7 5 13 18 13 6 7 12 24 23 26 20 16 12 18 13 11 8 7 8 16 18 19
3 4 4 10 8 9 5 8 10 11 7 10 10 15 15 14 15 18 15 9 2 4 6 5 6 13 17 13 8 7 9 24 21 23 19 14 15 15 15 11 4 6 16 18 18
1 2 3 7 5 7 6 8 13 15 11 8 13 16 16 12 13 16 15 14 14 13 12 6 5 9 18 16 6 11 13 17 21 20 20 21 18 13 5 8 8 4 14 16 17
Wind_Direction
358 351 348 346 346 348 346 344 341 336 336 334 337 341 334 328 311 270 250 245 198 166 222 176 197 217 231 234 225 228 235 246 245 247 245 164 250 152 309 276 286 258 270 288 324
354 352 353 351 346 344 338 335 337 332 333 335 333 333 329 325 311 280 265 229 216 185 217 206 197 192 223 231 216 219 227 241 254 264 262 270 257 280 278 278 280 274 240 239 260
352 348 347 346 341 336 336 333 326 324 330 326 324 322 319 310 278 244 42 246 238 230 236 231 228 210 228 234 223 228 247 239 244 250 263 290 279 277 273 266 268 291 309 293 286
344 343 341 340 337 334 328 326 324 325 323 320 320 321 321 295 253 107 56 346 287 232 216 218 215 219 230 235 231 243 249 244 262 261 255 261 275 278 267 272 278 291 294 292 291
341 339 336 334 333 330 325 322 318 317 311 307 307 311 300 230 245 131 337 342 310 184 207 204 211 218 227 238 244 243 248 253 249 264 272 265 265 269 275 281 278 293 287 282 281
338 337 332 328 325 322 319 317 312 303 297 288 286 288 266 251 329 296 299 302 272 258 216 216 227 229 241 237 243 250 249 247 255 255 260 262 263 269 271 274 280 286 289 291 289
338 332 329 327 323 317 314 312 307 298 292 283 264 248 262 256 284 288 285 284 273 266 237 216 221 230 224 250 252 254 253 253 245 250 253 264 263 255 266 267 273 278 286 285 287
334 332 332 330 326 320 316 312 303 298 292 272 243 233 260 255 264 266 268 263 244 245 256 267 228 239 247 267 263 242 239 245 231 227 242 239 266 264 272 271 275 285 288 291 289
332 331 332 329 327 324 314 303 299 297 295 227 197 218 268 122 230 250 245 253 246 220 229 244 227 229 223 233 245 224 234 230 241 236 241 230 257 254 255 273 273 279 291 297 293
329 327 327 326 324 323 317 299 293 258 216 188 249 222 231 243 231 251 260 228 239 214 205 212 213 214 222 213 226 221 228 245 258 232 222 241 251 255 257 270 275 286 293 291 289
335 330 328 326 326 324 314 288 235 200 214 264 281 251 287 275 260 257 219 207 214 224 206 193 201 214 217 219 239 250 245 247 236 242 244 249 256 256 261 270 276 286 285 288 289
342 338 333 330 328 322 290 339 24 342 294 273 258 262 264 275 278 270 258 227 195 218 208 188 215 222 218 224 227 239 246 246 249 238 236 251 268 275 271 272 278 279 282 281 284
336 334 331 329 319 268 329 302 7 332 261 282 263 259 258 240 249 255 244 225 231 230 212 216 221 217 218 221 226 226 234 240 252 255 251 257 265 267 265 258 272 268 262 272 275
329 325 328 332 280 342 293 204 290 330 279 249 185 195 184 218 231 235 255 224 223 237 229 230 234 217 222 222 217 229 217 241 255 253 251 247 269 263 272 269 265 268 276 268 257
324 321 319 320 302 282 340 304 312 237 279 100 137 97 132 240 333 87 172 224 233 221 224 223 226 226 221 223 215 236 227 234 240 249 260 247 256 266 261 265 264 260 262 262 240
324 324 324 278 271 289 307 295 256 231 244 218 152 281 244 193 309 357 292 214 247 242 242 238 223 224 233 219 221 222 218 225 237 245 243 244 254 257 259 265 268 266 264 236 178
327 331 307 150 358 346 310 257 231 250 37 92 330 322 308 7 308 328 341 263 219 211 229 228 240 235 236 210 204 202 192 200 218 223 247 241 249 255 253 263 245 260 254 158 168
327 315 138 352 357 305 237 208 254 312 272 335 324 301 281 16 303 287 327 321 215 233 218 221 221 223 212 213 187 193 190 205 215 230 240 216 251 240 256 248 250 255 239 150 170
307 209 340 7 319 219 246 233 336 357 352 315 307 273 272 209 307 274 347 305 298 232 241 223 230 191 221 211 197 188 209 212 242 230 273 220 226 271 257 254 247 238 219 181 170
317 287 35 6 11 251 278 310 322 331 313 296 285 288 299 312 308 312 80 60 315 339 326 277 259 224 198 206 209 197 192 197 218 235 227 242 241 239 257 234 223 214 198 183 163
290 265 49 72 90 301 314 312 323 327 324 306 302 294 289 291 282 287 189 129 283 319 300 285 258 223 185 200 190 190 195 213 211 230 207 229 219 198 238 245 192 191 180 164 166
303 316 39 285 293 181 318 334 330 317 325 291 293 288 287 294 295 270 265 209 204 301 302 286 290 273 198 205 217 201 203 199 199 196 250 220 228 288 243 313 209 210 146 156 163
341 298 109 283 341 335 327 299 284 309 338 331 305 318 305 298 290 301 338 196 194 228 307 0 232 225 211 197 206 195 207 194 213 202 206 223 224 206 134 139 144 136 148 155 155
327 327 351 356 351 332 331 305 326 328 314 316 300 296 332 314 293 287 310 44 260 257 257 250 253 256 191 195 191 202 203 192 207 207 185 212 207 180 137 120 134 142 157 160 161
13 23 335 308 315 320 295 294 303 355 323 309 279 311 339 314 316 299 356 312 317 193 249 279 246 227 260 316 301 280 205 205 208 217 228 191 229 239 160 64 43 165 168 166 162
343 339 324 291 281 298 289 304 317 343 313 305 305 327 316 301 295 295 310 310 327 303 296 278 303 269 251 237 240 245 252 206 207 211 228 233 236 240 280 296 269 172 178 173 170
318 251 271 290 288 307 301 322 313 317 291 287 313 310 299 321 322 303 292 289 276 287 289 292 306 242 233 213 229 230 209 223 210 213 217 222 232 254 268 225 250 152 187 185 178